TimeAKDT,TemperatureF,Dew PointF,Humidity,Sea Level PressureIn,VisibilityMPH,Wind Direction,Wind SpeedMPH,Gust SpeedMPH,PrecipitationIn,Events,Conditions,WindDirDegrees,DateUTC
12:53 AM,54.0,51.1,90,30.22,10.0,ESE,5.8,-,N/A,,Overcast,110,2013-09-06 08:53:00
1:53 AM,53.1,51.1,93,30.22,10.0,East,10.4,-,0.00,Rain,Light Rain,80,2013-09-06 09:53:00
2:53 AM,53.1,52.0,96,30.21,10.0,East,11.5,-,0.00,,Overcast,100,2013-09-06 10:53:00
3:53 AM,54.0,52.0,93,30.19,10.0,East,11.5,-,N/A,,Overcast,100,2013-09-06 11:53:00
4:53 AM,54.0,52.0,93,30.19,10.0,ESE,10.4,-,N/A,,Overcast,110,2013-09-06 12:53:00
5:53 AM,54.0,52.0,93,30.19,10.0,ESE,6.9,-,N/A,,Overcast,110,2013-09-06 13:53:00
6:53 AM,52.0,50.0,93,30.19,5.0,WSW,3.5,-,0.02,Rain,Light Rain,240,2013-09-06 14:53:00
7:48 AM,53.6,51.8,94,30.20,4.0,East,6.9,-,0.03,Rain,Light Rain,90,2013-09-06 15:48:00
7:53 AM,52.0,52.0,100,30.21,2.5,East,8.1,-,0.03,Rain,Light Rain,80,2013-09-06 15:53:00
8:23 AM,52.0,51.1,97,30.20,3.0,East,9.2,-,0.01,Rain,Light Rain,90,2013-09-06 16:23:00
8:36 AM,52.0,51.1,97,30.20,2.5,East,11.5,-,0.02,Rain,Light Rain,80,2013-09-06 16:36:00
8:47 AM,53.6,51.8,94,30.20,4.0,ENE,10.4,-,0.03,Rain,Light Rain,70,2013-09-06 16:47:00
8:53 AM,53.1,52.0,96,30.20,4.0,ENE,9.2,-,0.04,Rain,Light Rain,70,2013-09-06 16:53:00
9:37 AM,54.0,53.1,97,30.20,7.0,East,10.4,-,0.01,,Overcast,100,2013-09-06 17:37:00
9:53 AM,55.0,53.1,93,30.20,8.0,East,12.7,-,0.01,Rain,Light Rain,100,2013-09-06 17:53:00
10:53 AM,54.0,52.0,93,30.20,10.0,East,12.7,-,0.00,,Overcast,100,2013-09-06 18:53:00
11:53 AM,55.0,53.1,93,30.19,10.0,East,15.0,-,0.00,Rain,Light Rain,100,2013-09-06 19:53:00
12:53 PM,55.9,53.1,90,30.18,10.0,East,13.8,-,0.00,,Overcast,100,2013-09-06 20:53:00
1:53 PM,57.9,55.0,90,30.18,10.0,SE,5.8,-,0.00,,Overcast,130,2013-09-06 21:53:00
2:53 PM,57.9,55.0,90,30.16,10.0,SW,4.6,-,0.00,,Overcast,220,2013-09-06 22:53:00
3:53 PM,60.1,55.0,83,30.14,10.0,Calm,Calm,-,N/A,,Overcast,0,2013-09-06 23:53:00
4:53 PM,57.9,54.0,87,30.12,10.0,ENE,3.5,-,N/A,,Overcast,60,2013-09-07 00:53:00
5:53 PM,57.9,54.0,87,30.12,10.0,East,6.9,-,N/A,,Overcast,100,2013-09-07 01:53:00
6:53 PM,55.0,52.0,89,30.09,10.0,ESE,10.4,-,N/A,,Overcast,110,2013-09-07 02:53:00
7:53 PM,57.0,55.0,93,30.08,10.0,East,11.5,-,N/A,,Overcast,90,2013-09-07 03:53:00
8:53 PM,57.0,54.0,89,30.07,10.0,East,18.4,-,N/A,,Overcast,80,2013-09-07 04:53:00
9:53 PM,59.0,54.0,83,30.06,10.0,East,16.1,-,N/A,,Overcast,80,2013-09-07 05:53:00
10:53 PM,57.9,54.0,87,30.06,10.0,ENE,12.7,-,N/A,,Overcast,70,2013-09-07 06:53:00
11:53 PM,59.0,53.1,81,30.04,10.0,East,12.7,-,N/A,,Overcast,90,2013-09-07 07:53:00